Regional Weather Roundup
Issued by NWS Midland/Odessa, TX

Skip options and go directly to product.
Home | Oldest Version | Previous Version | Current Version | All | Text Only | Save Text | Print | Product List | Glossary On

Skip product version selection by date and time.   
183
ASUS44 KMAF 010110
RWRMAF
MIDLAND AREA WEATHER ROUNDUP
NATIONAL WEATHER SERVICE MIDLAND TX
800 PM CDT TUE MAR 31 2015

...IN SOUTHWEST TEXAS AND SOUTHEAST NEW MEXICO...

CITY           SKY/WX    TMP DP  RH WIND       PRES   REMARKS
ALPINE         CLOUDY    67  40  36 W5        30.09F
ANDREWS        CLOUDY    74  41  31 SW7       29.93R
ARTESIA        CLOUDY    72  43  35 S18       29.91S
BIG SPRING     CLOUDY    79  51  36 S13       29.91R
CARLSBAD       CLOUDY    70  45  40 SW7       29.93R
DRYDEN           N/A     75  63  66 SE10      29.91R
FORT STOCKTON  CLOUDY    73  46  38 SW6       29.95R
GUAD PASS      CLOUDY    66  36  32 W12       30.06R
HOBBS          CLOUDY    73  37  27 S15G21    29.94R
MARFA          CLOUDY    64  39  39 W7        30.07S
MIDLAND AIRPK  CLOUDY    77  40  26 SW15      29.91F
MIDLAND INTL   CLOUDY    75  43  31 SW8       29.91F
ODESSA         CLOUDY    73  42  32 S7        29.93F
PECOS          CLOUDY    74  46  35 SW5       29.91S
PRESIDIO       MOCLDY    77  42  28 NW6       29.93S
SEMINOLE       CLOUDY    74  38  27 SW12      29.93S
SNYDER         MOCLDY    76  49  38 SE8       29.89R
WINK           CLOUDY    76  40  27 SW15      29.91S
$$
...OTHER STATIONS IN TEXAS...

CITY           SKY/WX    TMP DP  RH WIND       PRES   REMARKS
ABILENE        CLOUDY    77  58  51 NW7       29.89R
AMARILLO       PTCLDY    77  31  18 S14       29.87R
AUSTIN         MOCLDY    73  64  73 S8        29.93S
BROWNSVILLE    CLOUDY    73  69  87 SE13      29.97R
CORPUS CHRISTI CLOUDY    73  68  84 SE15      29.97R
DALLAS FTW     MOCLDY    76  60  57 S13       29.87R
DEL RIO        CLOUDY    72  63  73 SE10      29.91R
EL PASO        MOCLDY    71  43  36 SW17      29.95R
HOUSTON INT    CLOUDY    76  63  64 S7        29.96S
LUBBOCK        CLOUDY    73  40  30 S13G21    29.89F
SAN ANGELO     MOCLDY    76  61  59 S9        29.88S
SAN ANTONIO    PTCLDY    73  64  73 S9        29.95S
WACO           PTCLDY    72  60  66 S13       29.90S
WICHITA FALLS  NOT AVBL
$$
...OTHER LOCATIONS IN NEW MEXICO...

CITY           SKY/WX    TMP DP  RH WIND       PRES   REMARKS
ALAMAGORDO     MOCLDY    75  28  17 S8        29.92S
ALBUQUERQUE    MOCLDY    73  20  13 W7        29.97F
CANNON AFB     CLOUDY    71  39  31 S12       29.91S
CLOVIS         CLOUDY    72  36  26 S15       29.91S
HOLLOMAN AFB   MOCLDY    79  24  13 W6        29.90S
ROSWELL        MOCLDY    74  35  24 S7        29.89F
RUIDOSO        MOCLDY    59  27  29 NW9       30.11S
SANTA FE       CLOUDY    67  18  15 NW8       30.02S
TRUTH OR CONSE FAIR      72  29  20 W10       29.96S
TUCUMCARI      PTCLDY    74  23  15 S7        29.86S
$$

USA.gov is the U.S. government's official web portal to all federal, state and local government web resources and services.